Вернуться в каталог

ORB-12 STRIDER

LostНаукаVLEO
NORAD 57483·PAYLOAD·🇬🇧 United Kingdom

Запущен Jul 30, 2023 с Satish Dhawan Space Centre

Loading…

Ближайшие Пролёты (ближайшие 24 часа)

TLE

УстаревшееSource: Space-Track

Эпоха: Jan 10, 2024, 19:03 UTC

1 57483U 23109C   24010.79410534  .00010603  00000-0  49907-3 0  9994
2 57483   5.0027 110.8465 0013742 325.2209  34.7002 15.15065068 25008

Отслеживайте ORB-12 STRIDER в реальном времени с AllMySat

Download on the App Store